Date String (YYYY-MM-DD hh:mm:ss) UTC,Instrument flags,Ambient pressure (hPa),Sample flow (lpm),Bypass flow (lpm),Sample temperature (°C),Ambient temperature (°C),ASC tube jacket temperature (°C),LED temperature (°C),Box temperature (°C),Sample RH (%),Span deviation,Mass concentration (μg/m³),Mass concentration (μg/m³),Mass concentration (μg/m³)
DateTimeUTC,F1_M11,P_M11,Q1_M11,Q2_M11,T1_M11,T2_M11,T3_M11,T4_M11,T5_M11,U1_M11,ZSPAN_M11,X0_M11,X2_M11,X1_M11
2022-02-03 13:00:00,,0827.0,4.99,0.00,22.2,22.8,00.0,31.1,23.9,03.2,0000.8,0009.25,0006.25,0005.94
2022-02-03 13:01:00,,0826.8,5.01,0.00,22.3,23.1,00.0,31.2,24.1,03.1,0001.1,0009.28,0006.29,0005.98
2022-02-03 13:02:00,,0827.0,5.00,0.00,22.4,23.1,00.0,31.2,24.1,03.1,0000.5,0009.32,0006.31,0006.00
2022-02-03 13:03:00,,0826.8,4.98,0.00,22.3,22.4,00.0,31.2,23.8,03.1,0000.2,0009.14,0006.35,0006.02
2022-02-03 13:04:00,,0827.0,5.00,0.00,22.1,21.7,00.0,31.2,23.3,03.2,0000.5,0009.06,0006.38,0006.04
2022-02-03 13:05:00,,0826.8,5.00,0.00,21.8,21.0,00.0,31.1,22.9,03.2,0000.3,0008.94,0006.34,0006.04
2022-02-03 13:06:00,,0826.9,4.99,0.00,21.7,20.7,00.0,31.0,22.8,03.2,0000.7,0008.95,0006.35,0006.05
2022-02-03 13:07:00,,0826.9,5.00,0.00,21.8,21.2,00.0,31.0,23.1,03.2,0002.0,0009.03,0006.38,0006.07
2022-02-03 13:08:00,,0826.9,4.99,0.00,21.9,21.8,00.0,31.0,23.3,03.2,0002.5,0009.02,0006.38,0006.08
2022-02-03 13:09:00,,0826.9,5.01,0.00,22.0,22.2,00.0,31.1,23.6,03.2,0002.6,0009.06,0006.40,0006.09
2022-02-03 13:10:00,,0826.8,5.01,0.00,22.1,22.6,00.0,31.1,23.7,03.2,0002.2,0009.13,0006.43,0006.11
2022-02-03 13:11:00,,0826.8,4.99,0.00,22.2,22.9,00.0,31.1,23.9,03.1,0002.1,0009.13,0006.43,0006.12
2022-02-03 13:12:00,,0826.8,5.00,0.00,22.3,23.1,00.0,31.2,24.0,03.1,0001.4,0009.09,0006.43,0006.13
2022-02-03 13:13:00,,0827.0,5.01,0.00,22.4,23.2,00.0,31.2,24.2,03.1,0002.2,0009.03,0006.40,0006.12
2022-02-03 13:14:00,,0826.8,5.00,0.00,22.5,23.1,00.0,31.2,24.1,03.1,0002.2,0008.96,0006.39,0006.12
2022-02-03 13:15:00,,0826.9,5.02,0.00,22.3,22.2,00.0,31.2,23.7,03.2,0002.1,0008.98,0006.40,0006.12
2022-02-03 13:16:00,,0827.0,4.99,0.00,22.1,21.3,00.0,31.2,23.3,03.2,0001.2,0009.01,0006.41,0006.11
2022-02-03 13:17:00,,0826.8,5.01,0.00,21.8,20.6,00.0,31.1,22.9,03.3,0000.1,0009.03,0006.42,0006.12
2022-02-03 13:18:00,,0826.9,4.99,0.00,21.7,20.7,00.0,31.0,22.8,03.3,0000.3,0009.08,0006.43,0006.13
2022-02-03 13:19:00,,0826.9,4.99,0.00,21.8,21.3,00.0,31.0,23.1,03.2,0000.5,0009.12,0006.44,0006.13
2022-02-03 13:20:00,,0826.8,5.00,0.00,21.9,21.9,00.0,31.1,23.4,03.3,0000.5,0009.10,0006.43,0006.13
2022-02-03 13:21:00,,0826.9,5.01,0.00,22.0,22.4,00.0,31.1,23.6,03.2,0000.7,0009.17,0006.45,0006.13
2022-02-03 13:22:00,,0827.0,4.99,0.00,22.1,22.7,00.0,31.1,23.8,03.2,0000.5,0009.19,0006.43,0006.11
2022-02-03 13:23:00,,0826.9,5.01,0.00,22.2,23.0,00.0,31.2,24.0,03.2,0000.8,0009.23,0006.43,0006.09
2022-02-03 13:24:00,,0826.9,4.99,0.00,22.4,23.2,00.0,31.2,24.1,03.2,0000.3,0009.28,0006.46,0006.09
2022-02-03 13:25:00,,0826.9,5.00,0.00,22.3,22.7,00.0,31.2,23.9,03.2,0000.7,0009.35,0006.48,0006.08
2022-02-03 13:26:00,,0826.9,4.99,0.00,22.1,21.8,00.0,31.2,23.4,03.2,0000.4,0009.37,0006.49,0006.09
2022-02-03 13:27:00,,0826.8,5.01,0.00,21.9,21.0,00.0,31.1,23.0,03.2,0000.4,0009.55,0006.48,0006.09
2022-02-03 13:28:00,,0826.9,4.99,0.00,21.6,20.5,00.0,31.0,22.6,03.3,0000.8,0010.03,0006.44,0006.07
2022-02-03 13:29:00,,0826.9,5.01,0.00,21.6,20.8,00.0,31.0,22.8,03.3,0000.8,0009.95,0006.41,0006.05
2022-02-03 13:30:00,,0826.9,5.00,0.00,21.7,21.4,00.0,31.0,23.1,03.3,0000.6,0009.88,0006.38,0006.03
2022-02-03 13:31:00,,0826.9,4.99,0.00,21.8,21.9,00.0,31.0,23.3,03.3,0000.7,0009.82,0006.35,0006.00
2022-02-03 13:32:00,,0826.9,5.01,0.00,21.9,22.3,00.0,31.0,23.5,03.3,0000.6,0009.72,0006.30,0005.98
2022-02-03 13:33:00,,0826.9,4.99,0.00,22.0,22.6,00.0,31.0,23.7,03.4,0000.6,0009.71,0006.29,0005.98
2022-02-03 13:34:00,,0826.9,4.99,0.00,22.2,22.9,00.0,31.1,23.9,03.3,0000.7,0009.69,0006.28,0005.98
2022-02-03 13:35:00,,0826.9,5.01,0.00,22.3,23.2,00.0,31.1,24.0,03.3,0000.5,0009.65,0006.27,0006.00
2022-02-03 13:36:00,,0826.9,5.01,0.00,22.3,22.9,00.0,31.1,24.0,03.2,0000.5,0009.63,0006.28,0006.02
2022-02-03 13:37:00,,0826.9,5.00,0.00,22.1,22.1,00.0,31.1,23.5,03.1,0000.5,0009.55,0006.26,0006.03
2022-02-03 13:38:00,,0827.0,4.99,0.00,21.9,21.4,00.0,31.1,23.1,03.2,0000.0,0009.41,0006.29,0006.05
2022-02-03 13:39:00,,0827.0,5.00,0.00,21.7,20.7,00.0,31.0,22.7,03.3,0000.0,0008.93,0006.33,0006.07
2022-02-03 13:40:00,,0826.8,4.99,0.00,21.6,20.9,00.0,30.9,22.7,03.4,0000.0,0009.01,0006.36,0006.08
2022-02-03 13:41:00,,0826.9,5.01,0.00,21.7,21.4,00.0,30.9,23.0,03.4,0000.1,0009.07,0006.39,0006.12
2022-02-03 13:42:00,,0826.9,5.00,0.00,21.8,22.0,00.0,31.0,23.3,03.4,0000.5,0009.33,0006.45,0006.15
2022-02-03 13:43:00,,0826.9,5.01,0.00,21.9,22.4,00.0,31.0,23.5,03.3,0000.4,0009.35,0006.50,0006.19
2022-02-03 13:44:00,,0826.9,5.00,0.00,22.0,22.7,00.0,31.0,23.7,03.2,0000.5,0009.36,0006.53,0006.21
2022-02-03 13:45:00,,0826.9,4.99,0.00,22.2,23.0,00.0,31.1,23.9,03.2,0001.0,0009.42,0006.56,0006.22
2022-02-03 13:46:00,,0827.0,5.02,0.00,22.3,23.2,00.0,31.1,24.0,03.2,0001.3,0009.48,0006.59,0006.23
2022-02-03 13:47:00,,0826.9,5.00,0.00,22.3,22.7,00.0,31.1,23.8,03.2,0001.1,0009.50,0006.59,0006.22
2022-02-03 13:48:00,,0826.9,4.99,0.00,22.1,21.9,00.0,31.1,23.4,03.2,0001.6,0009.58,0006.60,0006.23
2022-02-03 13:49:00,,0826.9,5.00,0.00,21.9,21.2,00.0,31.0,23.0,03.3,0002.0,0009.55,0006.60,0006.23
2022-02-03 13:50:00,,0827.0,5.00,0.00,21.7,20.7,00.0,31.0,22.7,03.4,0002.2,0009.57,0006.60,0006.24
2022-02-03 13:51:00,,0827.0,4.99,0.00,21.7,21.1,00.0,30.9,22.9,03.4,0002.2,0009.55,0006.61,0006.26
2022-02-03 13:52:00,,0827.0,5.01,0.00,21.8,21.7,00.0,30.9,23.2,03.3,0002.1,0009.51,0006.60,0006.26
2022-02-03 13:53:00,,0827.1,5.00,0.00,21.9,22.2,00.0,31.0,23.5,03.2,0001.6,0009.40,0006.61,0006.26
2022-02-03 13:54:00,,0827.1,4.99,0.00,22.0,22.6,00.0,31.0,23.7,03.2,0001.9,0009.43,0006.60,0006.26
2022-02-03 13:55:00,,0827.1,5.01,0.00,22.1,22.9,00.0,31.0,23.9,03.1,0001.8,0009.44,0006.60,0006.27
2022-02-03 13:56:00,,0827.2,5.00,0.00,22.3,23.1,00.0,31.1,24.0,03.1,0001.6,0009.39,0006.58,0006.29
2022-02-03 13:57:00,,0827.1,4.99,0.00,22.3,23.1,00.0,31.1,24.0,03.0,0002.0,0009.37,0006.59,0006.29
2022-02-03 13:58:00,,0827.1,5.00,0.00,22.2,22.3,00.0,31.1,23.7,03.0,0002.2,0009.33,0006.59,0006.29
2022-02-03 13:59:00,,0827.0,5.01,0.00,22.0,21.5,00.0,31.1,23.3,03.1,0002.2,0009.24,0006.56,0006.28
